QPF
0.00 0.00 0.00 0.00 0.00 0.00 0.00 0.00 0.00 0.00 0.00 0.00 0.00 0.00 0.00 0.00 0.00 0.00 0.00 0.00 0.00 0.00 0.00 0.00 0.00 0.00 0.00 0.01 0.02 0.03 0.03 0.03 0.03 0.04 0.04 0.05 0.07 0.08 0.06 0.05 0.06 0.06 0.06 0.06
0.00 0.00 0.00 0.00 0.00 0.00 0.00 0.00 0.00 0.00 0.00 0.00 0.00 0.00 0.00 0.00 0.00 0.00 0.00 0.00 0.00 0.00 0.00 0.00 0.00 0.01 0.01 0.01 0.02 0.03 0.03 0.05 0.04 0.04 0.05 0.06 0.08 0.08 0.07 0.07 0.08 0.06 0.06 0.06
0.00 0.00 0.00 0.00 0.00 0.00 0.00 0.00 0.00 0.00 0.00 0.00 0.00 0.00 0.00 0.00 0.00 0.00 0.00 0.00 0.00 0.00 0.00 0.00 0.00 0.01 0.02 0.01 0.02 0.03 0.04 0.05 0.06 0.06 0.07 0.07 0.09 0.10 0.09 0.07 0.07 0.06 0.07 0.07
0.00 0.00 0.00 0.00 0.00 0.00 0.00 0.00 0.00 0.00 0.00 0.00 0.00 0.00 0.00 0.00 0.00 0.00 0.00 0.00 0.00 0.00 0.00 0.00 0.00 0.01 0.02 0.02 0.02 0.04 0.04 0.04 0.06 0.07 0.07 0.08 0.08 0.09 0.09 0.08 0.08 0.08 0.09 0.08
0.00 0.00 0.00 0.00 0.00 0.00 0.00 0.00 0.00 0.00 0.00 0.00 0.00 0.00 0.00 0.00 0.00 0.00 0.00 0.00 0.00 0.00 0.00 0.00 0.00 0.01 0.02 0.01 0.02 0.03 0.05 0.05 0.05 0.08 0.09 0.08 0.09 0.10 0.10 0.10 0.10 0.08 0.08 0.06
0.00 0.00 0.00 0.00 0.00 0.00 0.00 0.00 0.00 0.00 0.00 0.00 0.00 0.00 0.00 0.00 0.00 0.00 0.00 0.00 0.00 0.00 0.00 0.00 0.00 0.00 0.02 0.01 0.02 0.03 0.05 0.05 0.05 0.07 0.07 0.07 0.09 0.09 0.09 0.10 0.10 0.09 0.08 0.07
0.00 0.00 0.00 0.00 0.00 0.00 0.00 0.00 0.00 0.00 0.00 0.00 0.00 0.00 0.00 0.00 0.00 0.00 0.00 0.00 0.00 0.00 0.00 0.00 0.00 0.00 0.01 0.02 0.02 0.04 0.04 0.05 0.05 0.04 0.05 0.06 0.07 0.08 0.09 0.08 0.09 0.08 0.08 0.08
0.00 0.00 0.00 0.00 0.00 0.00 0.00 0.00 0.00 0.00 0.00 0.00 0.00 0.00 0.00 0.00 0.00 0.00 0.00 0.00 0.00 0.00 0.01 0.01 0.00 0.00 0.01 0.02 0.02 0.04 0.05 0.06 0.06 0.05 0.06 0.06 0.08 0.12 0.13 0.09 0.08 0.08 0.08 0.07
0.00 0.00 0.00 0.00 0.00 0.00 0.00 0.00 0.00 0.00 0.00 0.00 0.00 0.00 0.00 0.00 0.00 0.00 0.00 0.00 0.00 0.00 0.01 0.03 0.01 0.01 0.01 0.02 0.03 0.03 0.04 0.05 0.07 0.06 0.07 0.09 0.12 0.14 0.14 0.10 0.08 0.08 0.08 0.07
0.00 0.00 0.00 0.00 0.00 0.00 0.00 0.00 0.00 0.00 0.00 0.00 0.00 0.00 0.00 0.00 0.00 0.00 0.00 0.00 0.00 0.00 0.01 0.03 0.03 0.02 0.02 0.03 0.05 0.06 0.06 0.05 0.06 0.07 0.10 0.10 0.12 0.13 0.10 0.08 0.08 0.07 0.08 0.08
0.00 0.00 0.00 0.00 0.00 0.00 0.00 0.00 0.00 0.00 0.00 0.00 0.00 0.00 0.01 0.01 0.00 0.00 0.00 0.00 0.00 0.00 0.01 0.01 0.02 0.02 0.02 0.02 0.06 0.09 0.08 0.05 0.05 0.07 0.09 0.11 0.08 0.05 0.05 0.06 0.07 0.08 0.09 0.08
0.00 0.00 0.00 0.00 0.00 0.00 0.00 0.00 0.00 0.00 0.00 0.00 0.00 0.00 0.00 0.00 0.00 0.00 0.01 0.02 0.01 0.01 0.06 0.04 0.01 0.01 0.01 0.00 0.01 0.03 0.03 0.02 0.03 0.05 0.06 0.07 0.06 0.06 0.07 0.08 0.08 0.08 0.08 0.07
0.00 0.00 0.00 0.00 0.00 0.00 0.00 0.00 0.00 0.00 0.00 0.00 0.00 0.00 0.00 0.00 0.00 0.01 0.00 0.03 0.02 0.00 0.02 0.03 0.01 0.01 0.01 0.01 0.00 0.00 0.01 0.01 0.02 0.02 0.03 0.04 0.05 0.05 0.06 0.06 0.06 0.06 0.06 0.07
0.00 0.00 0.00 0.00 0.00 0.00 0.00 0.00 0.00 0.00 0.00 0.00 0.00 0.00 0.00 0.00 0.01 0.02 0.00 0.00 0.00 0.00 0.00 0.00 0.00 0.01 0.02 0.02 0.02 0.01 0.02 0.01 0.01 0.01 0.02 0.04 0.04 0.05 0.05 0.04 0.04 0.04 0.05 0.04
0.00 0.00 0.00 0.00 0.00 0.00 0.00 0.00 0.00 0.00 0.00 0.00 0.00 0.00 0.00 0.00 0.01 0.02 0.00 0.00 0.00 0.00 0.00 0.00 0.00 0.01 0.02 0.02 0.02 0.03 0.03 0.03 0.01 0.01 0.01 0.03 0.04 0.05 0.06 0.06 0.05 0.04 0.04 0.03
0.00 0.00 0.00 0.00 0.00 0.00 0.00 0.00 0.00 0.00 0.00 0.00 0.00 0.00 0.00 0.00 0.00 0.00 0.00 0.00 0.00 0.00 0.00 0.00 0.00 0.01 0.01 0.02 0.02 0.03 0.03 0.03 0.02 0.01 0.01 0.03 0.04 0.04 0.05 0.05 0.04 0.05 0.05 0.05
0.00 0.00 0.00 0.00 0.00 0.00 0.00 0.00 0.00 0.00 0.00 0.00 0.00 0.00 0.00 0.00 0.00 0.00 0.00 0.00 0.00 0.00 0.00 0.00 0.00 0.01 0.02 0.02 0.03 0.03 0.02 0.03 0.02 0.02 0.02 0.02 0.03 0.05 0.05 0.04 0.03 0.04 0.03 0.03
0.00 0.00 0.00 0.00 0.00 0.00 0.00 0.00 0.00 0.00 0.00 0.00 0.00 0.00 0.00 0.00 0.00 0.00 0.00 0.00 0.00 0.00 0.00 0.00 0.00 0.01 0.03 0.05 0.05 0.05 0.04 0.03 0.03 0.03 0.03 0.02 0.03 0.05 0.06 0.04 0.03 0.03 0.02 0.02
0.00 0.00 0.00 0.00 0.00 0.00 0.00 0.00 0.00 0.00 0.00 0.00 0.00 0.00 0.00 0.00 0.00 0.00 0.00 0.00 0.00 0.00 0.01 0.01 0.00 0.01 0.02 0.06 0.08 0.07 0.05 0.03 0.02 0.02 0.02 0.01 0.02 0.03 0.04 0.04 0.03 0.02 0.02 0.02
0.00 0.00 0.00 0.00 0.00 0.00 0.01 0.00 0.00 0.00 0.00 0.00 0.00 0.00 0.00 0.00 0.00 0.01 0.01 0.00 0.00 0.00 0.01 0.01 0.01 0.01 0.01 0.01 0.02 0.02 0.02 0.01 0.01 0.01 0.02 0.02 0.01 0.01 0.01 0.01 0.02 0.02 0.02 0.02
0.00 0.00 0.00 0.00 0.00 0.01 0.00 0.00 0.00 0.01 0.03 0.01 0.00 0.00 0.00 0.00 0.00 0.01 0.01 0.01 0.01 0.01 0.01 0.01 0.00 0.00 0.00 0.00 0.01 0.01 0.01 0.01 0.01 0.02 0.01 0.01 0.01 0.01 0.01 0.01 0.01 0.01 0.02 0.02
0.00 0.00 0.00 0.00 0.00 0.03 0.01 0.00 0.01 0.02 0.01 0.00 0.00 0.00 0.00 0.00 0.00 0.00 0.01 0.01 0.01 0.01 0.02 0.02 0.01 0.02 0.02 0.01 0.01 0.01 0.02 0.02 0.02 0.02 0.01 0.01 0.01 0.01 0.01 0.02 0.02 0.02 0.03 0.03
0.01 0.01 0.01 0.01 0.02 0.02 0.00 0.00 0.02 0.01 0.00 0.00 0.00 0.00 0.00 0.00 0.00 0.02 0.04 0.03 0.01 0.01 0.02 0.03 0.03 0.03 0.03 0.03 0.02 0.02 0.02 0.02 0.02 0.01 0.01 0.01 0.01 0.01 0.02 0.02 0.03 0.03 0.03 0.03
0.01 0.01 0.01 0.01 0.02 0.01 0.01 0.01 0.00 0.00 0.00 0.00 0.00 0.00 0.00 0.00 0.01 0.01 0.01 0.01 0.01 0.01 0.02 0.03 0.03 0.04 0.04 0.04 0.03 0.03 0.02 0.01 0.01 0.01 0.01 0.01 0.01 0.01 0.01 0.01 0.02 0.02 0.02 0.03
0.01 0.01 0.02 0.03 0.03 0.02 0.01 0.00 0.00 0.00 0.00 0.01 0.01 0.00 0.00 0.01 0.01 0.01 0.01 0.01 0.01 0.01 0.02 0.04 0.05 0.06 0.06 0.05 0.04 0.03 0.02 0.01 0.01 0.01 0.01 0.01 0.01 0.01 0.01 0.02 0.02 0.02 0.02 0.02
0.02 0.03 0.04 0.06 0.04 0.03 0.02 0.01 0.01 0.01 0.01 0.01 0.00 0.00 0.00 0.01 0.01 0.01 0.02 0.01 0.01 0.01 0.03 0.04 0.04 0.05 0.04 0.03 0.02 0.02 0.01 0.02 0.02 0.02 0.02 0.02 0.02 0.02 0.02 0.03 0.02 0.02 0.02 0.02
MSLP
1009.55 1009.90 1010.12 1010.22 1010.22 1010.14 1010.02 1009.83 1009.58 1009.25 1008.84 1008.34 1007.78 1007.21 1006.70 1006.31 1006.10 1006.12 1006.38 1006.85 1007.49 1008.25 1009.06 1009.84 1010.57 1011.20 1011.73 1012.18 1012.56 1012.89 1013.19 1013.47 1013.74 1013.99 1014.22 1014.44 1014.65 1014.85 1015.06 1015.28 1015.52 1015.78 1016.05 1016.33
1010.06 1010.25 1010.32 1010.30 1010.24 1010.18 1010.14 1010.08 1009.99 1009.82 1009.52 1009.07 1008.50 1007.85 1007.19 1006.61 1006.21 1006.05 1006.16 1006.54 1007.15 1007.92 1008.77 1009.62 1010.41 1011.09 1011.65 1012.10 1012.48 1012.80 1013.09 1013.37 1013.65 1013.92 1014.18 1014.41 1014.61 1014.80 1014.97 1015.15 1015.34 1015.57 1015.82 1016.10
1010.37 1010.39 1010.30 1010.18 1010.08 1010.06 1010.11 1010.22 1010.31 1010.32 1010.16 1009.80 1009.23 1008.51 1007.71 1006.95 1006.34 1005.97 1005.91 1006.17 1006.71 1007.46 1008.33 1009.23 1010.07 1010.80 1011.41 1011.89 1012.29 1012.64 1012.96 1013.27 1013.59 1013.90 1014.19 1014.44 1014.65 1014.81 1014.95 1015.07 1015.22 1015.39 1015.61 1015.87
1010.47 1010.33 1010.10 1009.90 1009.79 1009.83 1010.01 1010.29 1010.58 1010.77 1010.77 1010.50 1009.95 1009.16 1008.23 1007.28 1006.46 1005.89 1005.64 1005.75 1006.19 1006.90 1007.76 1008.69 1009.58 1010.37 1011.03 1011.58 1012.03 1012.43 1012.82 1013.19 1013.57 1013.94 1014.27 1014.55 1014.77 1014.91 1015.00 1015.07 1015.14 1015.25 1015.41 1015.63
1010.37 1010.10 1009.78 1009.54 1009.45 1009.57 1009.89 1010.35 1010.84 1011.22 1011.35 1011.17 1010.65 1009.80 1008.75 1007.64 1006.61 1005.83 1005.40 1005.34 1005.67 1006.30 1007.15 1008.09 1009.02 1009.86 1010.60 1011.22 1011.75 1012.22 1012.68 1013.13 1013.58 1014.02 1014.40 1014.71 1014.93 1015.06 1015.10 1015.11 1015.11 1015.14 1015.22 1015.38
1010.11 1009.77 1009.41 1009.17 1009.14 1009.36 1009.83 1010.46 1011.12 1011.65 1011.92 1011.82 1011.31 1010.43 1009.28 1008.01 1006.82 1005.85 1005.24 1005.03 1005.24 1005.79 1006.60 1007.53 1008.49 1009.39 1010.19 1010.88 1011.49 1012.04 1012.57 1013.09 1013.61 1014.10 1014.53 1014.87 1015.10 1015.21 1015.22 1015.16 1015.09 1015.04 1015.05 1015.14
1009.75 1009.39 1009.05 1008.86 1008.91 1009.24 1009.84 1010.61 1011.41 1012.06 1012.43 1012.40 1011.91 1011.01 1009.79 1008.43 1007.10 1005.99 1005.23 1004.90 1004.99 1005.46 1006.22 1007.14 1008.11 1009.04 1009.88 1010.63 1011.29 1011.90 1012.47 1013.05 1013.61 1014.15 1014.61 1014.97 1015.21 1015.31 1015.29 1015.20 1015.07 1014.95 1014.89 1014.91
1009.34 1009.03 1008.75 1008.64 1008.78 1009.21 1009.90 1010.77 1011.66 1012.40 1012.84 1012.85 1012.40 1011.50 1010.27 1008.86 1007.46 1006.27 1005.41 1004.98 1004.98 1005.39 1006.09 1006.98 1007.93 1008.87 1009.73 1010.50 1011.18 1011.81 1012.41 1013.00 1013.58 1014.13 1014.61 1014.98 1015.23 1015.34 1015.32 1015.20 1015.03 1014.88 1014.77 1014.73
1008.95 1008.71 1008.53 1008.51 1008.72 1009.22 1009.97 1010.88 1011.80 1012.58 1013.06 1013.12 1012.71 1011.85 1010.65 1009.26 1007.86 1006.65 1005.75 1005.27 1005.21 1005.55 1006.21 1007.05 1007.98 1008.90 1009.75 1010.51 1011.18 1011.79 1012.37 1012.94 1013.50 1014.03 1014.51 1014.90 1015.16 1015.28 1015.28 1015.18 1015.02 1014.85 1014.72 1014.65
1008.62 1008.48 1008.40 1008.45 1008.72 1009.23 1009.98 1010.87 1011.78 1012.54 1013.03 1013.12 1012.77 1011.98 1010.87 1009.55 1008.22 1007.05 1006.18 1005.69 1005.61 1005.91 1006.52 1007.32 1008.21 1009.09 1009.90 1010.62 1011.26 1011.82 1012.35 1012.88 1013.39 1013.89 1014.35 1014.73 1015.02 1015.18 1015.22 1015.17 1015.06 1014.92 1014.80 1014.72
1008.41 1008.38 1008.36 1008.46 1008.74 1009.22 1009.90 1010.71 1011.54 1012.25 1012.71 1012.82 1012.52 1011.84 1010.85 1009.66 1008.46 1007.39 1006.58 1006.12 1006.04 1006.33 1006.90 1007.66 1008.50 1009.34 1010.11 1010.79 1011.38 1011.89 1012.36 1012.82 1013.28 1013.73 1014.17 1014.55 1014.87 1015.09 1015.20 1015.23 1015.19 1015.11 1015.03 1014.98
1008.37 1008.41 1008.45 1008.55 1008.78 1009.17 1009.73 1010.41 1011.10 1011.71 1012.11 1012.22 1011.99 1011.42 1010.57 1009.55 1008.49 1007.55 1006.84 1006.44 1006.38 1006.66 1007.20 1007.93 1008.74 1009.54 1010.29 1010.94 1011.49 1011.96 1012.38 1012.78 1013.19 1013.61 1014.02 1014.42 1014.77 1015.05 1015.25 1015.38 1015.43 1015.44 1015.42 1015.40
1008.53 1008.61 1008.66 1008.72 1008.86 1009.13 1009.52 1010.01 1010.54 1011.01 1011.34 1011.43 1011.25 1010.78 1010.07 1009.21 1008.31 1007.51 1006.89 1006.55 1006.53 1006.79 1007.32 1008.03 1008.82 1009.61 1010.35 1011.00 1011.54 1012.00 1012.41 1012.78 1013.16 1013.55 1013.95 1014.36 1014.75 1015.10 1015.39 1015.61 1015.77 1015.86 1015.91 1015.93
1008.89 1008.98 1009.01 1009.00 1009.03 1009.13 1009.33 1009.62 1009.96 1010.28 1010.50 1010.56 1010.40 1010.02 1009.43 1008.71 1007.96 1007.26 1006.73 1006.44 1006.43 1006.69 1007.20 1007.89 1008.67 1009.48 1010.24 1010.92 1011.51 1011.99 1012.41 1012.80 1013.17 1013.56 1013.97 1014.39 1014.81 1015.22 1015.59 1015.90 1016.15 1016.33 1016.44 1016.49
1009.42 1009.50 1009.48 1009.40 1009.30 1009.23 1009.24 1009.33 1009.47 1009.63 1009.74 1009.75 1009.60 1009.28 1008.79 1008.17 1007.52 1006.91 1006.43 1006.16 1006.13 1006.37 1006.85 1007.52 1008.31 1009.14 1009.96 1010.70 1011.36 1011.92 1012.40 1012.82 1013.22 1013.62 1014.04 1014.48 1014.93 1015.38 1015.80 1016.18 1016.50 1016.74 1016.90 1016.97
1010.07 1010.12 1010.05 1009.89 1009.67 1009.46 1009.30 1009.20 1009.18 1009.20 1009.21 1009.16 1009.00 1008.71 1008.27 1007.73 1007.13 1006.56 1006.09 1005.80 1005.73 1005.92 1006.36 1007.00 1007.79 1008.65 1009.53 1010.36 1011.11 1011.77 1012.33 1012.82 1013.26 1013.69 1014.13 1014.58 1015.04 1015.52 1015.97 1016.39 1016.74 1017.02 1017.21 1017.30
1010.73 1010.76 1010.65 1010.42 1010.12 1009.80 1009.51 1009.29 1009.14 1009.04 1008.97 1008.88 1008.70 1008.42 1008.02 1007.50 1006.92 1006.35 1005.85 1005.51 1005.37 1005.48 1005.85 1006.44 1007.22 1008.10 1009.03 1009.94 1010.79 1011.54 1012.20 1012.77 1013.27 1013.73 1014.18 1014.64 1015.10 1015.58 1016.03 1016.47 1016.84 1017.14 1017.34 1017.45
1011.33 1011.33 1011.20 1010.94 1010.60 1010.22 1009.86 1009.56 1009.34 1009.18 1009.06 1008.94 1008.76 1008.48 1008.09 1007.58 1006.99 1006.39 1005.84 1005.41 1005.17 1005.18 1005.45 1005.97 1006.70 1007.57 1008.53 1009.50 1010.43 1011.28 1012.02 1012.66 1013.22 1013.71 1014.17 1014.62 1015.07 1015.53 1015.97 1016.40 1016.77 1017.08 1017.29 1017.41
1011.76 1011.76 1011.62 1011.37 1011.03 1010.65 1010.28 1009.97 1009.73 1009.56 1009.43 1009.30 1009.13 1008.86 1008.48 1007.97 1007.37 1006.72 1006.09 1005.57 1005.22 1005.10 1005.26 1005.67 1006.33 1007.16 1008.11 1009.11 1010.09 1011.00 1011.81 1012.51 1013.10 1013.62 1014.08 1014.52 1014.96 1015.39 1015.81 1016.22 1016.59 1016.90 1017.13 1017.27
1012.01 1012.01 1011.89 1011.67 1011.38 1011.04 1010.72 1010.44 1010.23 1010.09 1009.99 1009.88 1009.73 1009.49 1009.12 1008.61 1007.98 1007.29 1006.59 1005.97 1005.51 1005.27 1005.29 1005.59 1006.15 1006.91 1007.83 1008.81 1009.80 1010.74 1011.58 1012.32 1012.94 1013.47 1013.94 1014.37 1014.78 1015.19 1015.60 1016.00 1016.37 1016.69 1016.95 1017.12
1012.11 1012.11 1012.03 1011.86 1011.64 1011.38 1011.13 1010.92 1010.77 1010.68 1010.62 1010.56 1010.45 1010.23 1009.88 1009.37 1008.73 1008.01 1007.26 1006.56 1005.99 1005.63 1005.53 1005.71 1006.15 1006.83 1007.67 1008.61 1009.59 1010.52 1011.38 1012.12 1012.76 1013.30 1013.77 1014.19 1014.59 1015.00 1015.40 1015.80 1016.18 1016.53 1016.83 1017.06
1012.15 1012.16 1012.11 1012.00 1011.85 1011.67 1011.51 1011.38 1011.30 1011.27 1011.26 1011.23 1011.15 1010.96 1010.62 1010.13 1009.49 1008.74 1007.96 1007.20 1006.56 1006.10 1005.89 1005.96 1006.29 1006.87 1007.63 1008.52 1009.45 1010.36 1011.21 1011.96 1012.60 1013.15 1013.62 1014.05 1014.45 1014.85 1015.26 1015.67 1016.09 1016.47 1016.83 1017.12
1012.21 1012.23 1012.22 1012.16 1012.08 1011.98 1011.89 1011.83 1011.80 1011.80 1011.82 1011.82 1011.74 1011.56 1011.24 1010.75 1010.12 1009.37 1008.57 1007.79 1007.10 1006.58 1006.29 1006.27 1006.52 1007.01 1007.69 1008.51 1009.39 1010.27 1011.10 1011.85 1012.49 1013.04 1013.52 1013.95 1014.36 1014.77 1015.19 1015.64 1016.09 1016.52 1016.93 1017.30
1012.41 1012.44 1012.45 1012.44 1012.41 1012.35 1012.30 1012.27 1012.26 1012.27 1012.28 1012.26 1012.17 1011.97 1011.64 1011.16 1010.53 1009.80 1009.01 1008.22 1007.53 1006.98 1006.66 1006.59 1006.77 1007.19 1007.81 1008.57 1009.40 1010.25 1011.06 1011.79 1012.43 1012.99 1013.47 1013.91 1014.32 1014.74 1015.19 1015.66 1016.15 1016.64 1017.11 1017.54
1012.82 1012.85 1012.88 1012.89 1012.87 1012.83 1012.78 1012.74 1012.70 1012.67 1012.62 1012.54 1012.40 1012.16 1011.80 1011.31 1010.69 1009.98 1009.22 1008.47 1007.80 1007.27 1006.94 1006.85 1007.01 1007.39 1007.97 1008.68 1009.47 1010.29 1011.07 1011.79 1012.42 1012.97 1013.45 1013.89 1014.30 1014.73 1015.19 1015.68 1016.21 1016.74 1017.27 1017.76
1013.42 1013.46 1013.49 1013.49 1013.47 1013.40 1013.32 1013.21 1013.10 1012.98 1012.84 1012.66 1012.43 1012.13 1011.72 1011.21 1010.61 1009.93 1009.22 1008.53 1007.92 1007.44 1007.16 1007.09 1007.24 1007.61 1008.16 1008.84 1009.60 1010.39 1011.14 1011.83 1012.44 1012.97 1013.43 1013.86 1014.27 1014.70 1015.16 1015.66 1016.20 1016.77 1017.34 1017.88
Thickness
5842 5831 5828 5843 5854 5852 5849 5847 5848 5858 5872 5861 5855 5855 5862 5869 5864 5855 5850 5845 5839 5835 5835 5831 5824 5818 5811 5803 5796 5790 5785 5781 5778 5773 5768 5765 5763 5763 5762 5760 5758 5755 5753 5752
5828 5825 5845 5859 5859 5850 5843 5839 5844 5858 5869 5857 5850 5853 5863 5866 5862 5858 5851 5845 5840 5835 5832 5826 5821 5816 5809 5802 5797 5791 5786 5782 5778 5774 5771 5767 5764 5763 5762 5760 5757 5755 5753 5752
5820 5840 5856 5850 5844 5836 5837 5838 5843 5846 5857 5860 5849 5842 5852 5860 5865 5861 5857 5852 5846 5838 5830 5824 5819 5814 5809 5803 5797 5793 5787 5782 5778 5774 5770 5767 5763 5761 5759 5758 5756 5756 5754 5752
5829 5847 5845 5838 5835 5836 5828 5851 5850 5844 5834 5833 5844 5822 5841 5849 5848 5851 5852 5850 5845 5840 5834 5825 5819 5814 5809 5805 5800 5794 5788 5783 5779 5775 5770 5765 5760 5756 5758 5758 5757 5756 5755 5753
5826 5840 5837 5828 5836 5842 5839 5854 5846 5840 5832 5825 5836 5825 5832 5848 5837 5842 5848 5850 5846 5841 5835 5826 5821 5816 5812 5808 5802 5795 5789 5783 5779 5775 5771 5766 5763 5761 5760 5759 5757 5756 5756 5754
5834 5851 5848 5842 5848 5850 5849 5842 5836 5834 5827 5806 5826 5822 5822 5839 5839 5843 5845 5847 5844 5841 5835 5827 5823 5817 5812 5808 5803 5796 5788 5783 5779 5775 5772 5767 5763 5761 5758 5757 5755 5755 5755 5754
5814 5832 5846 5849 5835 5841 5837 5815 5797 5793 5794 5800 5832 5826 5828 5847 5855 5851 5845 5844 5842 5838 5831 5824 5819 5814 5809 5805 5801 5796 5788 5782 5778 5775 5771 5768 5765 5762 5758 5757 5756 5755 5754 5753
5797 5804 5832 5840 5831 5827 5827 5819 5793 5784 5790 5794 5813 5815 5834 5858 5860 5858 5853 5846 5840 5835 5830 5824 5819 5814 5809 5804 5800 5795 5788 5782 5778 5774 5770 5768 5766 5763 5760 5759 5758 5756 5756 5755
5810 5810 5844 5846 5845 5836 5823 5822 5832 5816 5813 5805 5809 5823 5836 5852 5850 5850 5846 5841 5835 5832 5828 5823 5819 5814 5809 5804 5799 5794 5787 5781 5777 5773 5770 5767 5764 5762 5760 5759 5758 5757 5756 5755
5820 5809 5836 5845 5841 5838 5836 5835 5825 5810 5791 5786 5805 5809 5810 5819 5832 5839 5838 5835 5833 5830 5826 5822 5818 5814 5809 5805 5799 5794 5787 5781 5777 5773 5770 5767 5764 5762 5760 5758 5756 5756 5755 5754
5820 5803 5817 5829 5816 5815 5820 5818 5817 5816 5814 5793 5784 5790 5827 5823 5830 5836 5836 5836 5833 5829 5824 5820 5817 5814 5809 5803 5797 5791 5785 5781 5776 5772 5769 5766 5764 5762 5760 5757 5756 5755 5753 5752
5816 5806 5798 5817 5835 5837 5830 5822 5816 5795 5796 5805 5796 5800 5841 5840 5843 5842 5837 5833 5831 5827 5823 5819 5815 5811 5806 5801 5795 5789 5785 5780 5776 5772 5769 5766 5763 5761 5759 5756 5755 5753 5751 5750
5810 5795 5777 5788 5809 5822 5818 5825 5823 5817 5807 5800 5795 5797 5838 5840 5839 5837 5834 5829 5826 5826 5822 5815 5810 5807 5803 5798 5794 5789 5785 5781 5778 5773 5768 5764 5761 5759 5756 5754 5753 5750 5748 5747
5806 5789 5781 5778 5795 5812 5807 5814 5821 5814 5801 5797 5804 5806 5819 5827 5829 5829 5827 5828 5827 5823 5817 5812 5807 5803 5800 5796 5792 5787 5784 5781 5777 5772 5767 5762 5759 5756 5754 5752 5750 5747 5745 5743
5794 5779 5784 5796 5811 5817 5815 5813 5815 5811 5810 5804 5809 5812 5816 5824 5826 5826 5827 5827 5823 5817 5812 5808 5803 5799 5795 5792 5788 5785 5782 5778 5775 5769 5764 5760 5757 5755 5752 5749 5746 5744 5742 5740
5782 5772 5777 5781 5800 5810 5809 5816 5819 5816 5816 5814 5813 5813 5828 5830 5831 5827 5825 5823 5817 5813 5809 5805 5801 5796 5792 5788 5785 5782 5778 5774 5771 5766 5761 5758 5755 5751 5748 5745 5742 5739 5737 5734
5770 5760 5758 5765 5789 5793 5785 5807 5813 5815 5821 5817 5808 5815 5827 5821 5819 5819 5821 5820 5816 5811 5808 5803 5799 5795 5790 5787 5783 5778 5774 5771 5766 5762 5758 5754 5751 5747 5744 5741 5738 5734 5731 5729
5756 5753 5755 5759 5767 5753 5791 5826 5825 5817 5817 5823 5821 5822 5825 5820 5821 5824 5825 5820 5815 5812 5807 5803 5798 5793 5789 5785 5780 5776 5772 5767 5762 5758 5754 5751 5747 5743 5740 5736 5733 5729 5726 5723
5758 5747 5745 5750 5750 5762 5793 5812 5815 5805 5798 5816 5814 5815 5819 5821 5817 5813 5819 5820 5816 5813 5808 5802 5798 5792 5787 5781 5775 5771 5766 5761 5757 5753 5750 5747 5743 5739 5735 5731 5727 5724 5721 5717
5751 5745 5736 5741 5737 5742 5771 5803 5818 5806 5781 5803 5806 5805 5808 5809 5791 5789 5807 5811 5810 5808 5804 5799 5795 5789 5782 5777 5773 5765 5760 5756 5752 5749 5746 5743 5739 5735 5731 5726 5723 5719 5716 5713
5727 5726 5724 5728 5733 5749 5775 5792 5795 5765 5759 5788 5796 5796 5797 5791 5789 5793 5801 5802 5801 5799 5796 5793 5788 5781 5776 5772 5767 5760 5755 5750 5748 5745 5741 5737 5733 5730 5726 5722 5718 5715 5712 5708
5724 5721 5719 5724 5722 5729 5766 5772 5759 5755 5774 5781 5785 5786 5786 5787 5789 5790 5789 5790 5790 5788 5785 5783 5778 5772 5769 5765 5759 5753 5748 5746 5744 5740 5735 5731 5727 5724 5721 5716 5712 5710 5706 5702
5726 5728 5728 5727 5727 5740 5752 5752 5757 5764 5765 5770 5774 5777 5779 5778 5777 5778 5777 5777 5778 5776 5773 5772 5767 5761 5758 5755 5752 5745 5742 5740 5736 5731 5727 5723 5720 5717 5713 5709 5706 5703 5700 5697
5721 5730 5724 5721 5725 5734 5741 5746 5749 5755 5755 5761 5765 5768 5769 5766 5766 5766 5765 5765 5766 5765 5763 5760 5756 5751 5746 5745 5743 5739 5736 5733 5728 5722 5718 5715 5711 5708 5705 5702 5699 5695 5692 5690
5704 5710 5711 5708 5712 5721 5724 5730 5735 5741 5747 5750 5754 5758 5758 5756 5754 5754 5753 5753 5753 5752 5752 5749 5744 5740 5737 5735 5732 5730 5727 5723 5718 5714 5710 5707 5703 5699 5694 5689 5685 5683 5678 5676
5692 5691 5691 5691 5701 5703 5705 5718 5726 5727 5731 5736 5739 5742 5745 5745 5742 5742 5741 5741 5741 5739 5738 5735 5732 5728 5726 5724 5721 5719 5717 5714 5709 5705 5702 5699 5695 5690 5686 5680 5673 5668 5666 5664